Hav Tind — OZ2071 — position and weather

sailwx.info

Track history (hours):
 
Tides and Currents Weather Stations Pressure Air Temp Water Temp Dewpoint Dewpoint Depression Visibility Wind Speed Wind Dir Waves Ship Positions

Hav Tind

Last reported at 2014-Sep-03 01:33 UTC. Time now 2014-Sep-03 02:12 UTC.
Position N 62°14' W 006°48'.

Length 60 m; draft 4 m.

Type: Cargo ship. MMSI: 231565000.

Date/timePositionNaut miles runAvg speedWind from/ knotsBaromVisibWave heightAir tempDewpointWater temp
2014-Sep-03 01:33N 62°14' W 006°48'0 0.0
2014-Sep-03 00:33N 62°14' W 006°48'0 0.0
2014-Sep-02 23:33N 62°14' W 006°48'0 0.0
2014-Sep-02 22:33N 62°14' W 006°48'0 0.0
2014-Sep-02 21:33N 62°14' W 006°48'0 0.0
2014-Sep-02 20:33N 62°14' W 006°48'0 0.0
2014-Sep-02 19:33N 62°14' W 006°48'0 0.0
2014-Sep-02 18:33N 62°14' W 006°48'0 0.0
2014-Sep-02 17:33N 62°14' W 006°48'0 0.0
2014-Sep-02 16:33N 62°14' W 006°48'0 0.0
2014-Sep-02 15:33N 62°14' W 006°48'0 0.0
2014-Sep-02 14:33N 62°14' W 006°48'2 2.1
2014-Sep-02 13:33N 62°14' W 006°44'7 2.7
2014-Sep-02 11:05N 62°11' W 006°31'2 0.4
2014-Sep-02 06:11N 62°11' W 006°26'4 7.0
2014-Sep-02 05:33N 62°11' W 006°35'7 6.8
2014-Sep-02 04:33N 62°14' W 006°48'0 0.0
2014-Sep-02 03:33N 62°14' W 006°48'0 0.0
2014-Sep-02 02:33N 62°14' W 006°48'0 0.0
2014-Sep-02 01:33N 62°14' W 006°48'0 0.0
2014-Sep-02 00:33N 62°14' W 006°48'0 0.0
2014-Sep-01 23:33N 62°14' W 006°48'0 0.0
2014-Sep-01 22:33N 62°14' W 006°48'0 0.0
2014-Sep-01 21:33N 62°14' W 006°48'0 0.0
2014-Sep-01 20:33N 62°14' W 006°48'0 0.0
2014-Sep-01 19:33N 62°14' W 006°48'0 0.0
2014-Sep-01 18:33N 62°14' W 006°48'0 0.0
2014-Sep-01 17:33N 62°14' W 006°48'0 0.0
2014-Sep-01 16:33N 62°14' W 006°48'0 0.0
2014-Sep-01 15:33N 62°14' W 006°48'0 0.0
2014-Sep-01 14:33N 62°14' W 006°48'0 0.0
2014-Sep-01 13:33N 62°14' W 006°48'0 0.0
2014-Sep-01 12:33N 62°14' W 006°48'0 0.0
2014-Sep-01 11:33N 62°14' W 006°48'0 0.0
2014-Sep-01 10:33N 62°14' W 006°48'0 0.0
2014-Sep-01 09:33N 62°14' W 006°48'0 0.0
2014-Sep-01 08:33N 62°14' W 006°48'0 0.0
2014-Sep-01 07:33N 62°14' W 006°48'0 0.0
2014-Sep-01 06:33N 62°14' W 006°48'0 0.0
2014-Sep-01 05:33N 62°14' W 006°48'0 0.0
2014-Sep-01 04:33N 62°14' W 006°48'0 0.0
2014-Sep-01 03:33N 62°14' W 006°48'0 0.0
2014-Sep-01 02:33N 62°14' W 006°48'0 0.0
2014-Sep-01 01:30N 62°14' W 006°48'0 0.0
2014-Sep-01 00:33N 62°14' W 006°48'0 0.0
2014-Aug-31 23:33N 62°14' W 006°48'0 0.0
2014-Aug-31 22:33N 62°14' W 006°48'0 0.0
2014-Aug-31 21:33N 62°14' W 006°48'0 0.0
2014-Aug-31 20:33N 62°14' W 006°48'0 0.0
2014-Aug-31 19:33N 62°14' W 006°48'0 0.0
2014-Aug-31 18:33N 62°14' W 006°48'0 0.0
2014-Aug-31 17:33N 62°14' W 006°48'0 0.0
2014-Aug-31 16:33N 62°14' W 006°48'0 0.0
2014-Aug-31 15:33N 62°14' W 006°48'0 0.0
2014-Aug-31 14:33N 62°14' W 006°48'0 0.0
2014-Aug-31 13:30N 62°14' W 006°48'0 0.0
2014-Aug-31 12:33N 62°14' W 006°48'0 0.0
2014-Aug-31 11:33N 62°14' W 006°48'0 0.0
2014-Aug-31 10:33N 62°14' W 006°48'0 0.0
2014-Aug-31 09:33N 62°14' W 006°48'0 0.0
2014-Aug-31 08:33N 62°14' W 006°48'0 0.0
2014-Aug-31 07:33N 62°14' W 006°48'0 0.0
2014-Aug-31 06:33N 62°14' W 006°48'0 0.0
2014-Aug-31 05:33N 62°14' W 006°48'0 0.0
2014-Aug-31 04:33N 62°14' W 006°48'0 0.0
2014-Aug-31 03:33N 62°14' W 006°48'0 0.0
2014-Aug-31 02:33N 62°14' W 006°48'0 0.0
2014-Aug-31 01:30N 62°14' W 006°48'0 0.0
2014-Aug-31 00:33N 62°14' W 006°48'0 0.0
2014-Aug-30 23:33N 62°14' W 006°48'0 0.0
2014-Aug-30 22:33N 62°14' W 006°48'0 0.0
2014-Aug-30 21:33N 62°14' W 006°48'0 0.0
2014-Aug-30 20:33N 62°14' W 006°48'0 0.0
2014-Aug-30 19:33N 62°14' W 006°48'0 0.0
2014-Aug-30 18:33N 62°14' W 006°48'0 0.0
2014-Aug-30 17:33N 62°14' W 006°48'0 0.0
2014-Aug-30 16:27N 62°14' W 006°48'0 0.0
2014-Aug-30 15:33N 62°14' W 006°48'0 0.0
2014-Aug-30 14:33N 62°14' W 006°48'0 0.0
2014-Aug-30 13:33N 62°14' W 006°48'0 0.0
2014-Aug-30 12:33N 62°14' W 006°48'0 0.0
2014-Aug-30 11:33N 62°14' W 006°48'0 0.0
2014-Aug-30 10:33N 62°14' W 006°48'0 0.0
2014-Aug-30 09:33N 62°14' W 006°48'0 0.0
2014-Aug-30 08:33N 62°14' W 006°48'0 0.0
2014-Aug-30 07:33N 62°14' W 006°48'0 0.0
2014-Aug-30 06:33N 62°14' W 006°48'0 0.0
2014-Aug-30 05:33N 62°14' W 006°48'0 0.0
2014-Aug-30 04:33N 62°14' W 006°48'0 0.0
2014-Aug-30 03:33N 62°14' W 006°48'0 0.0
2014-Aug-30 02:33N 62°14' W 006°48'0 0.0
2014-Aug-30 01:33N 62°14' W 006°48'0 0.0
2014-Aug-30 00:30N 62°14' W 006°48'0 0.0
2014-Aug-29 23:33N 62°14' W 006°48'0 0.0
2014-Aug-29 22:33N 62°14' W 006°48'0 0.0
2014-Aug-29 21:33N 62°14' W 006°48'0 0.0
2014-Aug-29 20:33N 62°14' W 006°48'0 0.0
2014-Aug-29 19:33N 62°14' W 006°48'0 0.0
2014-Aug-29 18:33N 62°14' W 006°48'0 0.0
2014-Aug-29 17:33N 62°14' W 006°48'0 0.0
2014-Aug-29 16:33N 62°14' W 006°48'0 0.0
2014-Aug-29 15:33N 62°14' W 006°48'0 0.0
2014-Aug-29 14:33N 62°14' W 006°48'3 2.9
2014-Aug-29 13:33N 62°13' W 006°43'6 1.8
2014-Aug-29 10:23N 62°10' W 006°32'7 8.0
2014-Aug-29 09:33N 62°14' W 006°44'2 1.9
2014-Aug-29 08:33N 62°14' W 006°48'0 0.0
2014-Aug-29 07:33N 62°14' W 006°48'0 0.0
2014-Aug-29 06:33N 62°14' W 006°48'0 0.0
2014-Aug-29 05:30N 62°14' W 006°48'0 0.0
2014-Aug-29 04:33N 62°14' W 006°48'0 0.0
2014-Aug-29 03:33N 62°14' W 006°48'0 0.0
2014-Aug-29 02:33N 62°14' W 006°48'0 0.0
2014-Aug-29 01:30N 62°14' W 006°48'0 0.0
2014-Aug-29 00:33N 62°14' W 006°48'0 0.0
2014-Aug-28 23:33N 62°14' W 006°48'0 0.0
2014-Aug-28 22:33N 62°14' W 006°48'0 0.0
2014-Aug-28 21:33N 62°14' W 006°48'0 0.0
2014-Aug-28 20:33N 62°14' W 006°48'0 0.0
2014-Aug-28 19:33N 62°14' W 006°48'0 0.3
2014-Aug-28 18:34N 62°14' W 006°48'1010.2
2014-Aug-28 17:33N 62°10' W 006°27'2 0.2
2014-Aug-28 10:33N 62°10' W 006°31'9 8.9
2014-Aug-28 09:33N 62°14' W 006°48'0 0.2
2014-Aug-28 08:30N 62°14' W 006°48'0 0.0
2014-Aug-28 06:06N 62°14' W 006°48'0 0.0
2014-Aug-28 05:30N 62°14' W 006°48'0 0.0
2014-Aug-28 04:30N 62°14' W 006°48'0 0.0
2014-Aug-28 03:30N 62°14' W 006°48'0 0.0
2014-Aug-28 02:27N 62°14' W 006°48'0 0.0
2014-Aug-28 01:24N 62°14' W 006°48'0 0.0
2014-Aug-28 00:30N 62°14' W 006°48'0 0.0
2014-Aug-27 23:32N 62°14' W 006°48'0 0.0
2014-Aug-27 22:33N 62°14' W 006°48'0 0.0
2014-Aug-27 21:33N 62°14' W 006°48'0 0.0
2014-Aug-27 20:33N 62°14' W 006°48'0 0.0
2014-Aug-27 19:32N 62°14' W 006°48'0 0.0
2014-Aug-27 18:32N 62°14' W 006°48'0 0.0
2014-Aug-27 17:32N 62°14' W 006°48'0 0.0
2014-Aug-27 16:32N 62°14' W 006°48'7 7.4
2014-Aug-27 15:33N 62°10' W 006°36'8 8.5
2014-Aug-27 14:33N 62°02' W 006°43'3 3.0
2014-Aug-27 13:32N 61°59' W 006°45'0 0.0
2014-Aug-27 12:29N 61°59' W 006°45'6 6.1
2014-Aug-27 11:33N 62°04' W 006°40'4 3.9
2014-Aug-27 10:33N 62°08' W 006°41'0 0.0
2014-Aug-27 09:31N 62°08' W 006°41'5 4.7
2014-Aug-27 08:32N 62°13' W 006°41'4 3.8
2014-Aug-27 07:32N 62°14' W 006°48'0 0.0
2014-Aug-27 06:23N 62°14' W 006°48'0 0.0
2014-Aug-27 04:32N 62°14' W 006°48'0 0.0
2014-Aug-27 03:27N 62°14' W 006°48'0 0.0
2014-Aug-27 02:29N 62°14' W 006°48'0 0.0
2014-Aug-27 01:26N 62°14' W 006°48'0 0.0
2014-Aug-27 00:11N 62°14' W 006°48'0 0.0
2014-Aug-26 23:32N 62°14' W 006°48'0 0.0
2014-Aug-26 22:09N 62°14' W 006°48'0 0.0
2014-Aug-26 21:33N 62°14' W 006°48'0 0.0
2014-Aug-26 20:12N 62°14' W 006°48'0 0.0
2014-Aug-26 18:29N 62°14' W 006°48'0 0.0
2014-Aug-26 17:24N 62°14' W 006°48'0 0.0
2014-Aug-26 16:32N 62°14' W 006°48'4 4.2
2014-Aug-26 15:33N 62°13' W 006°40'5 4.1
2014-Aug-26 14:26N 62°14' W 006°30'4 0.8
2014-Aug-26 09:33N 62°10' W 006°30'9 8.7
2014-Aug-26 08:30N 62°13' W 006°48'0 0.0
2014-Aug-26 07:33N 62°13' W 006°48'1 0.7
2014-Aug-26 06:29N 62°14' W 006°48'0 0.0
2014-Aug-26 05:29N 62°14' W 006°48'0 0.0
2014-Aug-26 04:32N 62°14' W 006°48'0 0.0
2014-Aug-26 03:32N 62°14' W 006°48'0 0.0
2014-Aug-26 02:32N 62°14' W 006°48'0 0.0
2014-Aug-26 01:32N 62°14' W 006°48'0 0.0
2014-Aug-26 00:23N 62°14' W 006°48'0 0.0
2014-Aug-25 23:32N 62°14' W 006°48'0 0.0
2014-Aug-25 22:14N 62°14' W 006°48'0 0.0
2014-Aug-25 21:32N 62°14' W 006°48'0 0.0
2014-Aug-25 20:32N 62°14' W 006°48'0 0.0
2014-Aug-25 19:14N 62°14' W 006°48'0 0.0
2014-Aug-25 18:29N 62°14' W 006°48'0 0.0
2014-Aug-25 17:23N 62°14' W 006°48'0 0.0
2014-Aug-25 16:29N 62°14' W 006°48'0 0.0
2014-Aug-25 15:26N 62°14' W 006°48'0 0.0
2014-Aug-25 14:32N 62°14' W 006°48'0 0.1
2014-Aug-25 13:28N 62°14' W 006°48'3 3.1
2014-Aug-25 12:33N 62°17' W 006°50'1 0.3
2014-Aug-25 09:20N 62°18' W 006°51'4 4.3
2014-Aug-25 08:30N 62°14' W 006°48'0 0.0
2014-Aug-25 07:33N 62°14' W 006°48'0 0.0
2014-Aug-25 06:33N 62°14' W 006°48'0 0.0
2014-Aug-25 05:33N 62°14' W 006°48'0 0.0
2014-Aug-25 04:33N 62°14' W 006°48'0 0.0
2014-Aug-25 03:33N 62°14' W 006°48'0 0.0
2014-Aug-25 02:33N 62°14' W 006°48'0 0.0
2014-Aug-25 01:33N 62°14' W 006°48'0 0.0
2014-Aug-25 00:33N 62°14' W 006°48'0 0.0
2014-Aug-24 23:33N 62°14' W 006°48'0 0.0
2014-Aug-24 22:33N 62°14' W 006°48'0 0.0
2014-Aug-24 21:33N 62°14' W 006°48'0 0.0
2014-Aug-24 20:33N 62°14' W 006°48'0 0.0
2014-Aug-24 19:33N 62°14' W 006°48'0 0.0
2014-Aug-24 18:33N 62°14' W 006°48'0 0.0
2014-Aug-24 17:33N 62°14' W 006°48'0 0.0
2014-Aug-24 16:33N 62°14' W 006°48'0 0.0
2014-Aug-24 15:33N 62°14' W 006°48'0 0.0
2014-Aug-24 14:33N 62°14' W 006°48'0 0.0
2014-Aug-24 13:33N 62°14' W 006°48'0 0.0
2014-Aug-24 12:33N 62°14' W 006°48'0 0.0
2014-Aug-24 11:33N 62°14' W 006°48'0 0.0
2014-Aug-24 10:33N 62°14' W 006°48'0 0.0
2014-Aug-24 09:33N 62°14' W 006°48'0 0.0
2014-Aug-24 08:33N 62°14' W 006°48'0 0.0
2014-Aug-24 07:33N 62°14' W 006°48'0 0.0
2014-Aug-24 06:33N 62°14' W 006°48'0 0.0
2014-Aug-24 05:33N 62°14' W 006°48'0 0.0
2014-Aug-24 04:33N 62°14' W 006°48'0 0.0
2014-Aug-24 03:33N 62°14' W 006°48'0 0.0
2014-Aug-24 02:27N 62°14' W 006°48'  
Track history (hours):
 
Tides and Currents Weather Stations Pressure Air Temp Water Temp Dewpoint Dewpoint Depression Visibility Wind Speed Wind Dir Waves Ship Positions

Hav Tind

Last reported at 2014-Sep-03 01:33 UTC. Time now 2014-Sep-03 02:12 UTC.
Position N 62°14' W 006°48'.

Length 60 m; draft 4 m.

Type: Cargo ship. MMSI: 231565000.

Date/timePositionNaut miles runAvg speedWind from/ knotsBaromVisibWave heightAir tempDewpointWater temp
2014-Sep-03 01:33N 62°14' W 006°48'0 0.0
2014-Sep-03 00:33N 62°14' W 006°48'0 0.0
2014-Sep-02 23:33N 62°14' W 006°48'0 0.0
2014-Sep-02 22:33N 62°14' W 006°48'0 0.0
2014-Sep-02 21:33N 62°14' W 006°48'0 0.0
2014-Sep-02 20:33N 62°14' W 006°48'0 0.0
2014-Sep-02 19:33N 62°14' W 006°48'0 0.0
2014-Sep-02 18:33N 62°14' W 006°48'0 0.0
2014-Sep-02 17:33N 62°14' W 006°48'0 0.0
2014-Sep-02 16:33N 62°14' W 006°48'0 0.0
2014-Sep-02 15:33N 62°14' W 006°48'0 0.0
2014-Sep-02 14:33N 62°14' W 006°48'2 2.1
2014-Sep-02 13:33N 62°14' W 006°44'7 2.7
2014-Sep-02 11:05N 62°11' W 006°31'2 0.4
2014-Sep-02 06:11N 62°11' W 006°26'4 7.0
2014-Sep-02 05:33N 62°11' W 006°35'7 6.8
2014-Sep-02 04:33N 62°14' W 006°48'0 0.0
2014-Sep-02 03:33N 62°14' W 006°48'0 0.0
2014-Sep-02 02:33N 62°14' W 006°48'0 0.0
2014-Sep-02 01:33N 62°14' W 006°48'0 0.0
2014-Sep-02 00:33N 62°14' W 006°48'0 0.0
2014-Sep-01 23:33N 62°14' W 006°48'0 0.0
2014-Sep-01 22:33N 62°14' W 006°48'0 0.0
2014-Sep-01 21:33N 62°14' W 006°48'0 0.0
2014-Sep-01 20:33N 62°14' W 006°48'0 0.0
2014-Sep-01 19:33N 62°14' W 006°48'0 0.0
2014-Sep-01 18:33N 62°14' W 006°48'0 0.0
2014-Sep-01 17:33N 62°14' W 006°48'0 0.0
2014-Sep-01 16:33N 62°14' W 006°48'0 0.0
2014-Sep-01 15:33N 62°14' W 006°48'0 0.0
2014-Sep-01 14:33N 62°14' W 006°48'0 0.0
2014-Sep-01 13:33N 62°14' W 006°48'0 0.0
2014-Sep-01 12:33N 62°14' W 006°48'0 0.0
2014-Sep-01 11:33N 62°14' W 006°48'0 0.0
2014-Sep-01 10:33N 62°14' W 006°48'0 0.0
2014-Sep-01 09:33N 62°14' W 006°48'0 0.0
2014-Sep-01 08:33N 62°14' W 006°48'0 0.0
2014-Sep-01 07:33N 62°14' W 006°48'0 0.0
2014-Sep-01 06:33N 62°14' W 006°48'0 0.0
2014-Sep-01 05:33N 62°14' W 006°48'0 0.0
2014-Sep-01 04:33N 62°14' W 006°48'0 0.0
2014-Sep-01 03:33N 62°14' W 006°48'0 0.0
2014-Sep-01 02:33N 62°14' W 006°48'0 0.0
2014-Sep-01 01:30N 62°14' W 006°48'0 0.0
2014-Sep-01 00:33N 62°14' W 006°48'0 0.0
2014-Aug-31 23:33N 62°14' W 006°48'0 0.0
2014-Aug-31 22:33N 62°14' W 006°48'0 0.0
2014-Aug-31 21:33N 62°14' W 006°48'0 0.0
2014-Aug-31 20:33N 62°14' W 006°48'0 0.0
2014-Aug-31 19:33N 62°14' W 006°48'0 0.0
2014-Aug-31 18:33N 62°14' W 006°48'0 0.0
2014-Aug-31 17:33N 62°14' W 006°48'0 0.0
2014-Aug-31 16:33N 62°14' W 006°48'0 0.0
2014-Aug-31 15:33N 62°14' W 006°48'0 0.0
2014-Aug-31 14:33N 62°14' W 006°48'0 0.0
2014-Aug-31 13:30N 62°14' W 006°48'0 0.0
2014-Aug-31 12:33N 62°14' W 006°48'0 0.0
2014-Aug-31 11:33N 62°14' W 006°48'0 0.0
2014-Aug-31 10:33N 62°14' W 006°48'0 0.0
2014-Aug-31 09:33N 62°14' W 006°48'0 0.0
2014-Aug-31 08:33N 62°14' W 006°48'0 0.0
2014-Aug-31 07:33N 62°14' W 006°48'0 0.0
2014-Aug-31 06:33N 62°14' W 006°48'0 0.0
2014-Aug-31 05:33N 62°14' W 006°48'0 0.0
2014-Aug-31 04:33N 62°14' W 006°48'0 0.0
2014-Aug-31 03:33N 62°14' W 006°48'0 0.0
2014-Aug-31 02:33N 62°14' W 006°48'0 0.0
2014-Aug-31 01:30N 62°14' W 006°48'0 0.0
2014-Aug-31 00:33N 62°14' W 006°48'0 0.0
2014-Aug-30 23:33N 62°14' W 006°48'0 0.0
2014-Aug-30 22:33N 62°14' W 006°48'0 0.0
2014-Aug-30 21:33N 62°14' W 006°48'0 0.0
2014-Aug-30 20:33N 62°14' W 006°48'0 0.0
2014-Aug-30 19:33N 62°14' W 006°48'0 0.0
2014-Aug-30 18:33N 62°14' W 006°48'0 0.0
2014-Aug-30 17:33N 62°14' W 006°48'0 0.0
2014-Aug-30 16:27N 62°14' W 006°48'0 0.0
2014-Aug-30 15:33N 62°14' W 006°48'0 0.0
2014-Aug-30 14:33N 62°14' W 006°48'0 0.0
2014-Aug-30 13:33N 62°14' W 006°48'0 0.0
2014-Aug-30 12:33N 62°14' W 006°48'0 0.0
2014-Aug-30 11:33N 62°14' W 006°48'0 0.0
2014-Aug-30 10:33N 62°14' W 006°48'0 0.0
2014-Aug-30 09:33N 62°14' W 006°48'0 0.0
2014-Aug-30 08:33N 62°14' W 006°48'0 0.0
2014-Aug-30 07:33N 62°14' W 006°48'0 0.0
2014-Aug-30 06:33N 62°14' W 006°48'0 0.0
2014-Aug-30 05:33N 62°14' W 006°48'0 0.0
2014-Aug-30 04:33N 62°14' W 006°48'0 0.0
2014-Aug-30 03:33N 62°14' W 006°48'0 0.0
2014-Aug-30 02:33N 62°14' W 006°48'0 0.0
2014-Aug-30 01:33N 62°14' W 006°48'0 0.0
2014-Aug-30 00:30N 62°14' W 006°48'0 0.0
2014-Aug-29 23:33N 62°14' W 006°48'0 0.0
2014-Aug-29 22:33N 62°14' W 006°48'0 0.0
2014-Aug-29 21:33N 62°14' W 006°48'0 0.0
2014-Aug-29 20:33N 62°14' W 006°48'0 0.0
2014-Aug-29 19:33N 62°14' W 006°48'0 0.0
2014-Aug-29 18:33N 62°14' W 006°48'0 0.0
2014-Aug-29 17:33N 62°14' W 006°48'0 0.0
2014-Aug-29 16:33N 62°14' W 006°48'0 0.0
2014-Aug-29 15:33N 62°14' W 006°48'0 0.0
2014-Aug-29 14:33N 62°14' W 006°48'3 2.9
2014-Aug-29 13:33N 62°13' W 006°43'6 1.8
2014-Aug-29 10:23N 62°10' W 006°32'7 8.0
2014-Aug-29 09:33N 62°14' W 006°44'2 1.9
2014-Aug-29 08:33N 62°14' W 006°48'0 0.0
2014-Aug-29 07:33N 62°14' W 006°48'0 0.0
2014-Aug-29 06:33N 62°14' W 006°48'0 0.0
2014-Aug-29 05:30N 62°14' W 006°48'0 0.0
2014-Aug-29 04:33N 62°14' W 006°48'0 0.0
2014-Aug-29 03:33N 62°14' W 006°48'0 0.0
2014-Aug-29 02:33N 62°14' W 006°48'0 0.0
2014-Aug-29 01:30N 62°14' W 006°48'0 0.0
2014-Aug-29 00:33N 62°14' W 006°48'0 0.0
2014-Aug-28 23:33N 62°14' W 006°48'0 0.0
2014-Aug-28 22:33N 62°14' W 006°48'0 0.0
2014-Aug-28 21:33N 62°14' W 006°48'0 0.0
2014-Aug-28 20:33N 62°14' W 006°48'0 0.0
2014-Aug-28 19:33N 62°14' W 006°48'0 0.3
2014-Aug-28 18:34N 62°14' W 006°48'1010.2
2014-Aug-28 17:33N 62°10' W 006°27'2 0.2
2014-Aug-28 10:33N 62°10' W 006°31'9 8.9
2014-Aug-28 09:33N 62°14' W 006°48'0 0.2
2014-Aug-28 08:30N 62°14' W 006°48'0 0.0
2014-Aug-28 06:06N 62°14' W 006°48'0 0.0
2014-Aug-28 05:30N 62°14' W 006°48'0 0.0
2014-Aug-28 04:30N 62°14' W 006°48'0 0.0
2014-Aug-28 03:30N 62°14' W 006°48'0 0.0
2014-Aug-28 02:27N 62°14' W 006°48'0 0.0
2014-Aug-28 01:24N 62°14' W 006°48'0 0.0
2014-Aug-28 00:30N 62°14' W 006°48'0 0.0
2014-Aug-27 23:32N 62°14' W 006°48'0 0.0
2014-Aug-27 22:33N 62°14' W 006°48'0 0.0
2014-Aug-27 21:33N 62°14' W 006°48'0 0.0
2014-Aug-27 20:33N 62°14' W 006°48'0 0.0
2014-Aug-27 19:32N 62°14' W 006°48'0 0.0
2014-Aug-27 18:32N 62°14' W 006°48'0 0.0
2014-Aug-27 17:32N 62°14' W 006°48'0 0.0
2014-Aug-27 16:32N 62°14' W 006°48'7 7.4
2014-Aug-27 15:33N 62°10' W 006°36'8 8.5
2014-Aug-27 14:33N 62°02' W 006°43'3 3.0
2014-Aug-27 13:32N 61°59' W 006°45'0 0.0
2014-Aug-27 12:29N 61°59' W 006°45'6 6.1
2014-Aug-27 11:33N 62°04' W 006°40'4 3.9
2014-Aug-27 10:33N 62°08' W 006°41'0 0.0
2014-Aug-27 09:31N 62°08' W 006°41'5 4.7
2014-Aug-27 08:32N 62°13' W 006°41'4 3.8
2014-Aug-27 07:32N 62°14' W 006°48'0 0.0
2014-Aug-27 06:23N 62°14' W 006°48'0 0.0
2014-Aug-27 04:32N 62°14' W 006°48'0 0.0
2014-Aug-27 03:27N 62°14' W 006°48'0 0.0
2014-Aug-27 02:29N 62°14' W 006°48'0 0.0
2014-Aug-27 01:26N 62°14' W 006°48'0 0.0
2014-Aug-27 00:11N 62°14' W 006°48'0 0.0
2014-Aug-26 23:32N 62°14' W 006°48'0 0.0
2014-Aug-26 22:09N 62°14' W 006°48'0 0.0
2014-Aug-26 21:33N 62°14' W 006°48'0 0.0
2014-Aug-26 20:12N 62°14' W 006°48'0 0.0
2014-Aug-26 18:29N 62°14' W 006°48'0 0.0
2014-Aug-26 17:24N 62°14' W 006°48'0 0.0
2014-Aug-26 16:32N 62°14' W 006°48'4 4.2
2014-Aug-26 15:33N 62°13' W 006°40'5 4.1
2014-Aug-26 14:26N 62°14' W 006°30'4 0.8
2014-Aug-26 09:33N 62°10' W 006°30'9 8.7
2014-Aug-26 08:30N 62°13' W 006°48'0 0.0
2014-Aug-26 07:33N 62°13' W 006°48'1 0.7
2014-Aug-26 06:29N 62°14' W 006°48'0 0.0
2014-Aug-26 05:29N 62°14' W 006°48'0 0.0
2014-Aug-26 04:32N 62°14' W 006°48'0 0.0
2014-Aug-26 03:32N 62°14' W 006°48'0 0.0
2014-Aug-26 02:32N 62°14' W 006°48'0 0.0
2014-Aug-26 01:32N 62°14' W 006°48'0 0.0
2014-Aug-26 00:23N 62°14' W 006°48'0 0.0
2014-Aug-25 23:32N 62°14' W 006°48'0 0.0
2014-Aug-25 22:14N 62°14' W 006°48'0 0.0
2014-Aug-25 21:32N 62°14' W 006°48'0 0.0
2014-Aug-25 20:32N 62°14' W 006°48'0 0.0
2014-Aug-25 19:14N 62°14' W 006°48'0 0.0
2014-Aug-25 18:29N 62°14' W 006°48'0 0.0
2014-Aug-25 17:23N 62°14' W 006°48'0 0.0
2014-Aug-25 16:29N 62°14' W 006°48'0 0.0
2014-Aug-25 15:26N 62°14' W 006°48'0 0.0
2014-Aug-25 14:32N 62°14' W 006°48'0 0.1
2014-Aug-25 13:28N 62°14' W 006°48'3 3.1
2014-Aug-25 12:33N 62°17' W 006°50'1 0.3
2014-Aug-25 09:20N 62°18' W 006°51'4 4.3
2014-Aug-25 08:30N 62°14' W 006°48'0 0.0
2014-Aug-25 07:33N 62°14' W 006°48'0 0.0
2014-Aug-25 06:33N 62°14' W 006°48'0 0.0
2014-Aug-25 05:33N 62°14' W 006°48'0 0.0
2014-Aug-25 04:33N 62°14' W 006°48'0 0.0
2014-Aug-25 03:33N 62°14' W 006°48'0 0.0
2014-Aug-25 02:33N 62°14' W 006°48'0 0.0
2014-Aug-25 01:33N 62°14' W 006°48'0 0.0
2014-Aug-25 00:33N 62°14' W 006°48'0 0.0
2014-Aug-24 23:33N 62°14' W 006°48'0 0.0
2014-Aug-24 22:33N 62°14' W 006°48'0 0.0
2014-Aug-24 21:33N 62°14' W 006°48'0 0.0
2014-Aug-24 20:33N 62°14' W 006°48'0 0.0
2014-Aug-24 19:33N 62°14' W 006°48'0 0.0
2014-Aug-24 18:33N 62°14' W 006°48'0 0.0
2014-Aug-24 17:33N 62°14' W 006°48'0 0.0
2014-Aug-24 16:33N 62°14' W 006°48'0 0.0
2014-Aug-24 15:33N 62°14' W 006°48'0 0.0
2014-Aug-24 14:33N 62°14' W 006°48'0 0.0
2014-Aug-24 13:33N 62°14' W 006°48'0 0.0
2014-Aug-24 12:33N 62°14' W 006°48'0 0.0
2014-Aug-24 11:33N 62°14' W 006°48'0 0.0
2014-Aug-24 10:33N 62°14' W 006°48'0 0.0
2014-Aug-24 09:33N 62°14' W 006°48'0 0.0
2014-Aug-24 08:33N 62°14' W 006°48'0 0.0
2014-Aug-24 07:33N 62°14' W 006°48'0 0.0
2014-Aug-24 06:33N 62°14' W 006°48'0 0.0
2014-Aug-24 05:33N 62°14' W 006°48'0 0.0
2014-Aug-24 04:33N 62°14' W 006°48'0 0.0
2014-Aug-24 03:33N 62°14' W 006°48'0 0.0
2014-Aug-24 02:27N 62°14' W 006°48'  

Dump ship's entire track history